Location: Driftpile
(55.3500°N, 115.7667°W)
Time: 02:00:19
(UTC+00:00)

ISS - Pass Details

Date: 06 December 2021
Orbit: 413 x 422 km, 51.6° (Epoch: 24 January)

Event Time Altitude Azimuth Distance (km) Brightness Sun altitude
Rises 01:22:34 0° 274° (W) 2,387 1.4 -16.8°
Reaches altitude 10° 01:25:08 10° 255° (WSW) 1,516 0.4 -17.1°
Maximum altitude 01:27:29 18° 211° (SSW) 1,128 -1.0 -17.4°
Drops below altitude 10° 01:29:50 10° 167° (SSE) 1,506 -0.9 -17.8°
Enters shadow 01:31:01 - 155° (SSE) 1,877 -0.6 -17.9°
